sat.trackr.live / text

‹ back to catalog

STARLINK-11134 [DTC]

NORAD 59956 · 2024-107M

PAYLOAD ACTIVE UNKNOWN

§ Identity

Operator
Country
US
Launch date
2024-06-05
Launch site
AFETR
Launch vehicle
Mass (kg)
RCS (m²)

Purposes: comms

External: N2YO · Heavens-Above · Gunter

§ Orbital elements

Epoch: 2026-09-21T11:59:37.300128Z

Period
91.74 min
Inclination
53.1589°
Eccentricity
0.0000751
Mean motion
15.69698527 rev/d
Perigee alt
359.3 km
Apogee alt
360.3 km
Semi-major
6,737.9 km
B*
6.5305e-6
RAAN
5.7323°
Arg perigee
86.2975°
Mean anomaly
273.8129°
Rev number
13,283

§ Raw data

STARLINK-11134 [DTC]1 59956U 24107M   26264.49973727  .00000203  00000+0  65305-5 0  99942 59956  53.1589   5.7323 0000751  86.2975 273.8129 15.69698527132834

JSON: /api/v1/satellites/59956 · /tle

For live sub-satellite position, see the globe view (requires WebGL).

§ Visibility from observer

Set your observer location to see the next 7 days of passes ≥ 10°. The values pass through the URL so the page stays shareable.

No JS? Fill the form by hand. The geolocation button needs JavaScript.